[[{"header":{"parameterUnit":"m.s-1","parameterCategory":1,"la1":30.2991,"la2":30.254,"lo1":-89.0895,"lo2":-89.0444,"dy":0.0017,"dx":0.0017,"nx":28,"ny":28,"refTime":"2023-10-02T21:00:00:Z","depth":0,"parameterNumber":2,"parameterNumberName":"U-component_of_WINDS"},"data":[0,0,0,0,0,0,0,0,0,0,0,0,0,0,0,0,0,0,0,0,0,0,0,0,0,0,0,0,0,0,0,0,0,0,0,0,0,0,0,0,0,0,0,0,0,0,0,0,0,0,0,0,0,0,0,0,0,0,-3.127,-3.127,0,-3.127,-3.127,-3.127,-3.1173,-3.1171,-3.1168,-3.1166,-3.1166,-3.1168,-3.117,0,0,0,0,0,0,0,0,0,0,0,0,0,-3.1187,-3.1189,-3.127,-3.127,-3.127,-3.127,-3.127,-3.127,-3.1174,-3.117,-3.1167,-3.1164,-3.1165,-3.1168,-3.1171,0,0,0,0,0,0,0,0,0,0,0,0,0,-3.1208,-3.1189,-3.127,-3.1222,-3.1217,-3.127,-3.127,-3.127,-3.1174,-3.117,-3.1167,-3.1163,-3.1164,-3.1168,-3.1171,-3.1269,0,0,-3.1182,-3.1183,0,0,0,0,0,0,0,0,-3.1207,-3.1211,-3.1229,-3.1225,-3.122,-3.1217,-3.124,-3.1269,-3.1175,-3.1191,-3.1166,-3.1161,-3.1186,-3.1188,-3.1196,-3.1269,-3.1269,-3.1182,-3.1184,-3.1186,-3.1187,0,0,0,0,0,0,0,-3.1206,-3.1211,-3.127,-3.1229,-3.1224,-3.12,-3.1199,-3.1245,-3.121,-3.1189,-3.1182,-3.1183,-3.1183,-3.1193,-3.1195,-3.1269,-3.1182,-3.1185,-3.1187,-3.1189,-3.1421,-3.1425,0,0,0,0,0,0,-3.1211,-3.121,-3.127,-3.127,-3.1204,-3.1205,-3.1203,-3.1222,-3.1209,-3.1203,-3.1187,-3.1179,-3.1189,-3.1191,-3.1195,-3.1307,-3.1186,-3.1189,-3.1191,-3.1417,-3.1422,-3.1426,0,0,0,0,0,0,-3.1209,-3.1217,-3.127,-3.1238,-3.1243,-3.121,-3.1232,-3.1224,-3.1234,-3.1207,-3.12,-3.1203,-3.1186,-3.119,-3.1251,-3.1306,-3.1191,-3.1194,-3.1412,-3.1418,-3.1424,-3.1533,0,0,0,0,0,0,-3.1208,-3.1217,-3.1254,-3.124,-3.1245,-3.1326,-3.1236,-3.1227,-3.124,-3.123,-3.1221,-3.1215,-3.1183,-3.1246,-3.1254,-3.1308,-3.1197,-3.1407,-3.1415,-3.1422,-3.1524,-3.1542,-3.1557,0,0,0,0,0,-3.1205,-3.1285,-3.1257,-3.1264,-3.1291,-3.1329,-3.1332,-3.1293,-3.1245,-3.1281,-3.1264,-3.1216,-3.1299,-3.1253,-3.1262,-3.1318,-3.1403,-3.1413,-3.1421,-3.1517,-3.1539,-3.1557,0,0,0,0,0,0,-3.1307,-3.1283,-3.125,-3.1329,-3.1332,-3.1313,-3.1358,-3.1318,-3.1335,-3.1325,-3.1276,-3.1274,-3.1343,-3.1337,-3.1286,-3.1411,-3.1342,-3.1354,-3.1412,-3.1432,-3.1449,-3.1448,-3.12,0,0,0,0,0,-3.1339,-3.1373,-3.1349,-3.1421,-3.1424,-3.1391,-3.1407,-3.1376,-3.1378,-3.1378,-3.1366,-3.1369,-3.1395,-3.1414,-3.1437,-3.1524,-3.1519,-3.1567,-3.1583,-3.1597,-3.1606,-3.165,-3.167,-3.1456,-3.1456,-3.1456,0,0,-3.1405,-3.1396,-3.142,-3.1441,-3.144,-3.1475,-3.1393,-3.1434,-3.146,-3.1385,-3.1441,-3.1432,-3.1432,-3.1506,-3.1538,-3.1503,-3.1665,-3.1608,-3.1619,-3.1621,-3.1661,-3.1681,-3.1699,-3.1462,-3.1461,-3.146,0,0,-3.1542,-3.154,-3.1597,-3.1598,-3.1597,-3.1575,-3.1589,-3.1577,-3.1567,-3.1623,-3.1567,-3.1597,-3.1645,-3.1646,-3.1654,-3.1792,-3.1747,-3.1801,-3.1886,-3.1929,-3.1946,-3.1961,-3.2008,-3.2026,-3.1811,-3.1812,-3.1812,0,-3.1624,-3.1675,-3.1633,-3.1677,-3.1687,-3.1621,-3.1679,-3.1682,-3.1689,-3.1698,-3.1659,-3.1716,-3.1712,-3.1784,-3.1818,-3.1827,-3.184,-3.1801,-3.1947,-3.1962,-3.1975,-3.2019,-3.2037,-3.1818,-3.1817,-3.1817,-3.1816,0,-3.1775,-3.1811,-3.1858,-3.1866,-3.1882,-3.1933,-3.1898,-3.1919,-3.1888,-3.187,-3.1927,-3.192,-3.1939,-3.1955,-3.1925,-3.2023,-3.2001,-3.1956,-3.1885,-3.2002,-3.2043,-3.206,-3.1827,-3.1825,-3.1823,-3.1821,0,0,-3.1975,-3.1959,-3.1976,-3.1978,-3.1973,-3.2,-3.2048,-3.2067,-3.2086,-3.2094,-3.2132,-3.2173,-3.2131,-3.2139,-3.2109,-3.2148,-3.2255,-3.2097,-3.2096,-3.2125,-3.2361,-3.2393,-3.2414,-3.2226,-3.223,-3.2232,-3.236,0,-3.2107,-3.2187,-3.215,-3.2234,-3.2266,-3.2204,-3.2246,-3.2247,-3.2232,-3.2257,-3.224,-3.2269,-3.2212,-3.2216,-3.2252,-3.2235,-3.2301,-3.2225,-3.226,-3.2262,-3.226,-3.2435,-3.247,-3.2591,-3.2376,-3.2379,-3.2381,0,-3.227,-3.2283,-3.2371,-3.2358,-3.237,-3.2408,-3.2422,-3.2447,-3.2447,-3.2433,-3.2443,-3.2404,-3.2449,-3.2382,-3.2443,-3.2392,-3.2405,-3.2399,-3.2403,-3.2403,-3.2327,-3.2438,-3.2629,-3.2646,-3.2406,-3.2404,-3.2402,0,-3.2405,-3.2445,-3.2502,-3.2506,-3.2493,-3.2521,-3.2517,-3.2513,-3.2527,-3.2539,-3.2547,-3.2566,-3.2575,-3.259,-3.2557,-3.2511,-3.2623,-3.2553,-3.2611,-3.2612,-3.2636,-3.2635,-3.2829,-3.2648,-3.2648,-3.2648,-3.2647,0,-3.2554,-3.2609,-3.2562,-3.2597,-3.2657,-3.2614,-3.2675,-3.2664,-3.2661,-3.2693,-3.2641,-3.2672,-3.2627,-3.2654,-3.2628,-3.2682,-3.2688,-3.2677,-3.2669,-3.268,-3.2681,-3.2686,-3.2676,-3.2653,-3.2652,-3.2651,-3.265,0,-3.2714,-3.2685,-3.2742,-3.2725,-3.2722,-3.2767,-3.2753,-3.2784,-3.2765,-3.2806,-3.2813,-3.2783,-3.2811,-3.278,-3.2806,-3.2789,-3.2862,-3.2843,-3.2861,-3.2855,-3.2915,-3.2909,-3.3118,-3.3142,-3.2948,-3.295,-3.2951,0,-3.281,-3.2851,-3.2838,-3.2855,-3.2854,-3.2883,-3.2896,-3.2856,-3.2871,-3.2874,-3.2905,-3.2929,-3.2945,-3.2993,-3.2974,-3.2994,-3.2973,-3.3045,-3.2976,-3.2985,-3.2972,-3.2969,-3.2972,-3.3059,-3.3061,-3.3063,-3.3064,0,-3.2983,-3.2966,-3.2987,-3.3002,-3.3019,-3.303,-3.3037,-3.3054,-3.3012,-3.3033,-3.306,-3.3073,-3.31,-3.3123,-3.3137,-3.3133,-3.3092,-3.3087,-3.3101,-3.3112,-3.312,-3.3114,-3.2898,-3.3082,-3.308,-3.3079,-3.3078,-3.3077,-3.3112,-3.3145,-3.314,-3.3165,-3.3166,-3.3173,-3.3201,-3.3186,-3.3208,-3.3225,-3.3201,-3.3235,-3.3233,-3.3248,-3.3248,-3.3274,-3.3244,-3.3265,-3.327,-3.3275,-3.3283,-3.3118,-3.3277,-3.3277,-3.3276,-3.3276,-3.3275,0,-3.328,-3.3274,-3.3297,-3.3308,-3.3327,-3.3287,-3.3292,-3.331,-3.3341,-3.3343,-3.336,-3.3392,-3.3414,-3.3397,-3.3416,-3.344,-3.3422,-3.3447,-3.3443,-3.3443,-3.331,-3.3295,-3.3461,-3.3461,-3.3461,-3.3461,-3.3461,-3.3461,-3.3369,-3.3422,-3.3405,-3.3458,-3.3451,-3.3484,-3.349,-3.3496,-3.3497,-3.3534,-3.3553,-3.3541,-3.3535,-3.3553,-3.3572,-3.3567,-3.3575,-3.3607,-3.3594,-3.3471,-3.3452,-3.3435,-3.342,-3.3609,-3.3609,-3.3724,-3.3725,-3.3725]},{"header":{"parameterUnit":"m.s-1","parameterCategory":1,"la1":30.2991,"la2":30.254,"lo1":-89.0895,"lo2":-89.0444,"dy":0.0017,"dx":0.0017,"nx":28,"ny":28,"refTime":"2023-10-02T21:00:00:Z","depth":0,"parameterNumber":3,"parameterNumberName":"V-component_of_WINDS"},"data":[0,0,0,0,0,0,0,0,0,0,0,0,0,0,0,0,0,0,0,0,0,0,0,0,0,0,0,0,0,0,0,0,0,0,0,0,0,0,0,0,0,0,0,0,0,0,0,0,0,0,0,0,0,0,0,0,0,0,2.1487,2.1487,0,2.1529,2.1529,2.153,2.153,2.153,2.1529,2.1529,2.1568,2.157,2.1571,0,0,0,0,0,0,0,0,0,0,0,0,0,2.1402,2.1404,2.1486,2.1487,2.1488,2.1529,2.1529,2.153,2.153,2.153,2.1529,2.1529,2.1568,2.1569,2.1571,0,0,0,0,0,0,0,0,0,0,0,0,0,2.1441,2.1404,2.1486,2.1493,2.1494,2.1529,2.1529,2.153,2.1531,2.153,2.1529,2.1528,2.1567,2.1569,2.1572,2.1602,0,0,2.1579,2.158,0,0,0,0,0,0,0,0,2.1439,2.1444,2.1491,2.1492,2.1494,2.1524,2.1514,2.1554,2.1531,2.1516,2.1529,2.1528,2.1554,2.1557,2.1567,2.1603,2.1605,2.1579,2.158,2.1581,2.1582,0,0,0,0,0,0,0,2.1436,2.1442,2.1503,2.1492,2.1493,2.1492,2.1497,2.1522,2.1539,2.1518,2.1518,2.1523,2.1554,2.1564,2.1568,2.1606,2.1579,2.1581,2.1582,2.1583,2.1669,2.167,0,0,0,0,0,0,2.1433,2.144,2.1502,2.1504,2.1464,2.1495,2.15,2.1515,2.1539,2.1542,2.1524,2.1523,2.1561,2.1565,2.1569,2.1605,2.1581,2.1583,2.1585,2.1668,2.1669,2.167,0,0,0,0,0,0,2.1431,2.1438,2.15,2.1472,2.148,2.1497,2.1514,2.1516,2.1526,2.1543,2.1546,2.1531,2.156,2.1566,2.1594,2.1607,2.1584,2.1587,2.1667,2.1668,2.167,2.1678,0,0,0,0,0,0,2.1428,2.1438,2.145,2.1473,2.1482,2.1525,2.1515,2.1517,2.1531,2.153,2.1551,2.1554,2.156,2.159,2.1596,2.1609,2.1588,2.1666,2.1668,2.1669,2.1677,2.168,2.1682,0,0,0,0,0,2.1425,2.145,2.1451,2.1458,2.1498,2.1526,2.1531,2.1539,2.1532,2.1544,2.1555,2.1553,2.1605,2.1593,2.16,2.1614,2.1665,2.1667,2.1669,2.1676,2.1679,2.1682,0,0,0,0,0,0,2.1427,2.1453,2.1454,2.1487,2.1504,2.1526,2.1541,2.1543,2.1561,2.156,2.1568,2.1573,2.16,2.161,2.1597,2.1644,2.1634,2.1637,2.1637,2.164,2.1643,2.1639,2.159,0,0,0,0,0,2.1431,2.1453,2.1474,2.1501,2.151,2.1524,2.1537,2.1542,2.156,2.1567,2.158,2.1596,2.1616,2.1629,2.1648,2.1679,2.1683,2.1692,2.1694,2.1696,2.1699,2.1715,2.1719,2.1677,2.1677,2.1677,0,0,2.1439,2.1457,2.147,2.1502,2.1516,2.1537,2.153,2.1553,2.1569,2.157,2.1597,2.1607,2.1626,2.1656,2.1669,2.1664,2.1712,2.1699,2.1701,2.1702,2.1718,2.1722,2.1725,2.1678,2.1678,2.1678,0,0,2.1466,2.1482,2.1506,2.152,2.1543,2.1552,2.1558,2.158,2.1587,2.1615,2.1616,2.1634,2.1668,2.1682,2.1693,2.1725,2.1724,2.1731,2.1744,2.176,2.1764,2.1766,2.1777,2.1781,2.1734,2.1734,2.1734,0,2.1473,2.1507,2.1517,2.1541,2.1554,2.1558,2.1581,2.1595,2.1621,2.163,2.1625,2.1668,2.1681,2.1713,2.1721,2.1731,2.1737,2.1728,2.1763,2.1766,2.1768,2.1779,2.1783,2.1734,2.1734,2.1734,2.1734,0,2.1514,2.1538,2.1554,2.1581,2.1597,2.162,2.1633,2.1647,2.1651,2.1661,2.1689,2.1705,2.1727,2.1736,2.1739,2.1768,2.1765,2.1761,2.1751,2.1773,2.1783,2.1787,2.1735,2.1735,2.1735,2.1735,0,0,2.1541,2.1575,2.1581,2.1593,2.1618,2.1636,2.1659,2.1682,2.1694,2.1712,2.1731,2.1761,2.1758,2.177,2.1775,2.1789,2.1813,2.1784,2.1784,2.1788,2.1845,2.1847,2.1851,2.1813,2.1814,2.1815,2.1843,0,2.157,2.1612,2.1623,2.1658,2.1679,2.1684,2.1704,2.172,2.173,2.1749,2.1759,2.1779,2.1774,2.1782,2.1796,2.1807,2.1824,2.1805,2.1829,2.183,2.1823,2.1856,2.1858,2.1885,2.1847,2.1848,2.1848,0,2.1608,2.1629,2.1667,2.169,2.1699,2.1717,2.1739,2.1757,2.1776,2.1782,2.1797,2.1801,2.1824,2.1814,2.1845,2.1832,2.1842,2.1849,2.185,2.1851,2.1839,2.1857,2.1893,2.1897,2.1854,2.1854,2.1854,0,2.1622,2.166,2.1688,2.1698,2.1726,2.1738,2.175,2.1768,2.1782,2.1801,2.1809,2.183,2.1842,2.1857,2.1866,2.1858,2.1896,2.1887,2.1901,2.1901,2.1907,2.1907,2.1944,2.1916,2.1916,2.1916,2.1916,0,2.1652,2.1675,2.1695,2.1712,2.1737,2.1749,2.1773,2.1785,2.1801,2.182,2.1825,2.1841,2.1853,2.1871,2.1878,2.1902,2.1908,2.1912,2.1913,2.1911,2.191,2.1917,2.1915,2.1917,2.1917,2.1917,2.1917,0,2.1672,2.1686,2.1717,2.1741,2.1747,2.1765,2.1785,2.1801,2.1811,2.1834,2.184,2.1856,2.1878,2.1889,2.1915,2.192,2.1947,2.1948,2.1941,2.1941,2.1954,2.1952,2.1996,2.2002,2.1971,2.1972,2.1972,0,2.169,2.1708,2.1734,2.1747,2.176,2.1781,2.1795,2.1807,2.1821,2.1845,2.1857,2.188,2.1898,2.1932,2.1945,2.1965,2.1966,2.198,2.1969,2.1966,2.1965,2.1963,2.1964,2.1981,2.1982,2.1982,2.1982,0,2.1719,2.1725,2.1746,2.1769,2.1787,2.1805,2.1823,2.1834,2.1849,2.1864,2.1887,2.1901,2.1929,2.1951,2.1972,2.1983,2.1984,2.1986,2.199,2.1987,2.1981,2.1983,2.1945,2.1984,2.1984,2.1984,2.1984,2.1984,2.1737,2.1753,2.1774,2.1797,2.1813,2.183,2.1846,2.1859,2.1879,2.1904,2.1909,2.1933,2.1951,2.1981,2.1992,2.201,2.2007,2.2013,2.2014,2.2015,2.2016,2.198,2.2014,2.2014,2.2014,2.2014,2.2014,0,2.1765,2.178,2.1801,2.1827,2.1845,2.1847,2.1868,2.1882,2.1903,2.1921,2.1939,2.1965,2.1987,2.2002,2.2023,2.2035,2.2036,2.204,2.2038,2.204,2.2018,2.2012,2.2038,2.2038,2.2038,2.2038,2.2038,2.2038,2.1782,2.1809,2.1818,2.1853,2.1867,2.1891,2.1903,2.1918,2.1932,2.1962,2.198,2.199,2.2007,2.2029,2.2048,2.2052,2.2059,2.2063,2.2066,2.2045,2.2042,2.2039,2.2034,2.2065,2.2065,2.2087,2.2088,2.2088]}]]